This is the latest recevied weather packets stored in our database for station/object K4CRS-13. If no packets are shown the sender has not sent any weather packets the latest 1 day(s).
| Time | Temp. | Humidity | Pressure | Rain* | Wind** | Luminosity | Snow |
|---|---|---|---|---|---|---|---|
| 1778023182 | 21.11° C | 73% | 1045.5 hPa | 0 mm | 1.79 m/s, 185° | 56 W/m² | - |
| 1778022879 | 21.11° C | 73% | 1045.3 hPa | 0 mm | 1.79 m/s, 179° | 43 W/m² | - |
| 1778022577 | 21.11° C | 73% | 1045.2 hPa | 0 mm | 1.34 m/s, 191° | 25 W/m² | - |
| 1778022275 | 21.11° C | 74% | 1045.5 hPa | 0 mm | 0.89 m/s, 185° | 32 W/m² | - |
| 1778021971 | 21.11° C | 73% | 1045.6 hPa | 0 mm | 1.34 m/s, 188° | 41 W/m² | - |
| 1778021668 | 21.11° C | 73% | 1045.5 hPa | 0 mm | 1.34 m/s, 171° | 32 W/m² | - |
| 1778021363 | 21.11° C | 73% | 1045.7 hPa | 0 mm | 1.34 m/s, 186° | 44 W/m² | - |
| 1778021061 | 21.11° C | 73% | 1045.8 hPa | 0 mm | 0.89 m/s, 183° | 37 W/m² | - |
| 1778020758 | 21.11° C | 74% | 1045.8 hPa | 0 mm | 1.79 m/s, 165° | 34 W/m² | - |
| 1778020455 | 21.11° C | 73% | 1045.9 hPa | 0 mm | 0.89 m/s, 180° | 49 W/m² | - |
| 1778020151 | 21.11° C | 72% | 1045.8 hPa | 0 mm | 1.34 m/s, 163° | 40 W/m² | - |
| 1778019848 | 21.11° C | 72% | 1045.7 hPa | 0 mm | 1.34 m/s, 183° | 38 W/m² | - |
| 1778019544 | 21.67° C | 71% | 1045.7 hPa | 0 mm | 1.34 m/s, 179° | 43 W/m² | - |
| 1778019241 | 21.67° C | 71% | 1045.5 hPa | 0 mm | 0.89 m/s, 185° | 92 W/m² | - |
| 1778018938 | 21.67° C | 71% | 1045.6 hPa | 0 mm | 1.79 m/s, 171° | 141 W/m² | - |
| 1778018635 | 21.67° C | 71% | 1045.6 hPa | 0 mm | 1.34 m/s, 180° | 107 W/m² | - |
| 1778018333 | 21.67° C | 70% | 1045.8 hPa | 0 mm | 1.34 m/s, 175° | 101 W/m² | - |
| 1778018031 | 21.67° C | 70% | 1045.7 hPa | 0 mm | 1.79 m/s, 175° | 127 W/m² | - |
| 1778017729 | 21.67° C | 70% | 1046.1 hPa | 0 mm | 0.89 m/s, 188° | 104 W/m² | - |
| 1778017426 | 21.67° C | 69% | 1045.8 hPa | 0 mm | 1.34 m/s, 175° | 108 W/m² | - |
| 1778017123 | 22.22° C | 68% | 1045.8 hPa | 0 mm | 1.34 m/s, 177° | 98 W/m² | - |
| 1778016821 | 22.78° C | 68% | 1046 hPa | 0 mm | 1.79 m/s, 189° | 100 W/m² | - |
| 1778016516 | 22.78° C | 68% | 1046 hPa | 0 mm | 1.34 m/s, 195° | 214 W/m² | - |
| 1778016214 | 22.78° C | 68% | 1045.7 hPa | 0 mm | 0.89 m/s, 170° | 262 W/m² | - |
| 1778015909 | 22.22° C | 67% | 1045.5 hPa | 0 mm | 1.34 m/s, 174° | 234 W/m² | - |
* Rain latest hour (hover to see other rain measurements)
** Current wind speed in m/s (hover to see current wind gust speed)